Regional Weather Roundup
Issued by NWS

Home | Current Version | Previous Version | Graphics & Text | Print | Product List | Glossary On
Versions: 1 2 3 4 5 6 7 8 9 10 11 12 13 14 15 16 17 18 19 20 21 22 23 24 25 26 27 28 29 30 31 32 33 34 35 36 37 38 39 40 41 42 43 44 45 46 47 48 49 50
000
ASUS43 KBIS 272010
RWRND

NORTH DAKOTA REGIONAL WEATHER ROUNDUP
NATIONAL WEATHER SERVICE BISMARCK ND
300 PM CDT TUE SEP 27 2016

NOTE: "FAIR" INDICATES FEW OR NO CLOUDS BELOW 12,000 FEET WITH NO
SIGNIFICANT WEATHER AND/OR OBSTRUCTIONS TO VISIBILITY.


NDZ001>003-009>011-017-272100-
NORTHWEST NORTH DAKOTA

CITY           SKY/WX    TMP DP  RH WIND       PRES   REMARKS
WILLISTON      SUNNY     75  51  43 VRB6      29.92F
MINOT          SUNNY     70  39  32 N7        29.94F
MINOT AFB      SUNNY     68  40  34 VRB1      29.93F
$$

NDZ018>021-031>035-040>046-272100-
SOUTHWEST NORTH DAKOTA

CITY           SKY/WX    TMP DP  RH WIND       PRES   REMARKS
BISMARCK       SUNNY     71  40  32 VRB3      29.95F
DICKINSON      SUNNY     76  44  32 W7        29.94F
GARRISON         N/A     70  42  36 S8        29.94F
HETTINGER ARPT SUNNY     79  46  31 NW6       29.97F
$$

NDZ004>008-012>016-024-026-027-054-272100-
NORTHEAST NORTH DAKOTA

CITY           SKY/WX    TMP DP  RH WIND       PRES   REMARKS
GRAND FORKS    MOSUNNY   59  43  55 N16G25    29.89S
GRND FRKS AFB  SUNNY     60  45  56 N13G20    29.89S
DEVILS LAKE    SUNNY     63  31  30 N18       29.92F
$$

NDZ022-023-025-028>030-036>039-047>053-272100-
SOUTHEAST NORTH DAKOTA

CITY           SKY/WX    TMP DP  RH WIND       PRES   REMARKS
FARGO          SUNNY     65  42  43 N16       29.86S
JAMESTOWN      SUNNY     66  31  27 N14G25    29.91S
$$




USA.gov is the U.S. government's official web portal to all federal, state and local government web resources and services.